Dewpoint
70 69 68 65 58 57 53 54 56 47 46 50 50 54 55 60 57 49 66 69 70 72 72 73 74 74 73 73 73 73 74 74 74 75 74 74 74 74 74 74 74 75 75 74 73 73 73 74 74
68 67 67 64 55 51 52 57 53 49 51 51 53 58 58 60 64 66 66 70 72 72 73 73 75 74 73 72 72 72 73 74 74 74 74 74 74 74 74 74 75 74 74 74 73 74 73 73 72
67 65 63 61 57 52 53 57 56 55 54 50 59 62 61 62 63 66 69 72 73 73 73 72 73 75 73 73 74 74 72 73 73 73 74 74 74 74 74 74 74 74 74 74 73 73 73 73 73
64 66 63 57 54 56 56 56 55 54 55 60 60 60 63 64 65 68 71 72 72 72 72 73 75 74 74 74 74 74 74 73 74 73 74 74 74 74 74 74 74 74 74 73 73 72 72 72 72
67 65 58 56 56 57 58 57 56 56 57 58 59 58 59 67 69 71 71 71 71 71 73 73 75 74 74 74 74 73 73 73 74 74 74 74 74 74 74 74 73 74 74 73 73 72 72 72 73
64 63 55 53 55 60 57 59 59 58 59 59 58 58 63 68 68 70 70 71 71 71 72 73 74 74 74 74 74 74 74 73 72 73 73 74 74 74 74 74 73 73 73 73 73 72 73 74 73
62 59 55 56 55 58 58 61 59 58 57 58 58 59 64 65 68 69 70 71 72 72 72 73 73 73 74 74 74 74 73 73 73 73 74 74 74 74 74 74 74 73 73 72 72 72 73 73 73
64 61 56 56 57 56 61 61 60 59 58 59 60 58 60 65 67 69 70 71 72 72 72 72 73 73 73 73 74 73 73 73 73 73 73 73 73 73 74 74 74 73 73 72 72 72 72 73 73
65 59 55 53 57 58 62 59 63 62 58 59 60 60 63 66 68 69 69 70 71 71 71 72 72 72 73 72 73 73 73 73 73 73 74 73 72 73 73 74 74 73 73 72 72 72 73 73 72
59 58 55 59 60 59 60 59 60 58 58 59 62 64 66 67 67 66 67 67 69 70 71 71 71 72 72 72 72 72 72 72 72 72 71 72 72 73 74 74 74 73 71 71 72 72 71 70 71
60 58 61 61 61 60 60 60 61 58 57 58 62 64 66 66 66 65 67 68 68 70 71 71 71 72 72 72 72 72 70 71 70 71 71 71 72 72 72 72 72 71 69 70 69 70 71 69 69
58 60 59 63 61 60 59 62 59 61 60 62 64 65 65 65 66 65 66 67 68 69 71 71 71 71 71 72 72 71 70 70 69 70 70 71 70 70 69 70 70 68 68 69 70 69 70 70 71
55 58 62 62 60 61 60 59 60 61 62 63 64 64 64 65 65 65 65 67 67 69 69 70 71 71 70 71 71 71 70 69 69 70 70 70 69 69 68 69 68 70 69 68 69 69 69 70 67
55 58 58 62 62 60 59 59 58 62 63 62 63 63 64 64 64 65 65 66 67 68 68 69 70 70 70 70 70 70 70 70 70 71 70 69 69 68 69 68 65 70 68 67 69 70 70 69 66
60 58 58 61 61 59 60 59 60 63 63 61 61 62 63 63 64 64 65 66 67 67 68 69 69 70 70 70 70 70 70 69 69 70 70 68 69 68 68 69 69 70 71 70 71 70 69 67 66
58 56 53 61 60 60 59 55 61 63 63 59 60 60 62 62 63 64 65 66 67 67 68 68 69 69 69 70 70 69 69 69 69 70 70 70 69 70 68 69 69 70 71 70 71 69 69 68 67
47 49 52 56 61 59 58 56 60 63 61 58 59 59 60 60 63 64 65 66 67 67 68 68 70 70 69 70 69 69 69 70 71 71 71 70 69 71 70 69 70 71 71 70 69 70 69 68 68
35 47 51 52 57 59 57 56 58 60 58 57 58 58 58 59 62 64 65 65 66 67 68 68 69 70 69 70 69 69 69 70 71 71 71 71 72 72 71 71 71 71 69 70 70 70 68 68 66
28 46 53 55 60 56 56 56 56 59 56 58 56 57 58 59 61 63 64 66 66 67 67 68 69 70 69 69 69 69 68 71 71 71 72 71 72 71 71 72 72 71 70 70 71 71 69 68 67
37 50 54 56 58 57 56 56 56 59 57 58 56 56 58 59 61 62 64 65 64 65 67 68 69 69 69 69 69 69 70 71 71 71 72 72 71 70 71 71 71 71 71 71 71 70 68 67 68
29 38 53 53 56 58 56 55 56 59 58 57 58 56 57 59 61 62 63 64 64 64 66 67 68 69 69 70 70 69 69 70 70 71 71 72 71 69 72 71 71 71 71 71 71 69 68 68 68
22 30 52 53 50 48 53 46 55 56 58 59 56 54 57 59 61 62 63 63 63 64 65 67 68 69 69 70 69 69 67 67 69 70 71 72 72 72 71 71 71 71 70 71 72 69 70 70 69
25 29 50 52 50 47 48 45 49 57 56 58 58 58 55 57 61 61 62 63 63 63 64 67 68 67 69 69 69 68 68 68 69 71 71 72 72 72 72 72 71 72 70 71 72 72 71 72 71
33 49 48 48 47 42 44 44 46 52 54 57 57 56 54 56 60 61 62 62 63 64 64 67 67 67 69 69 68 68 68 67 68 69 70 71 72 72 72 71 70 71 70 70 71 72 72 72 71
26 39 40 40 40 39 44 46 44 54 55 57 58 57 54 56 59 60 61 61 62 64 64 67 67 67 68 68 68 68 67 67 68 68 70 70 71 72 72 72 71 71 71 70 71 72 72 72 71
28 32 37 32 35 37 47 43 45 56 59 58 58 58 56 58 60 61 62 61 61 64 65 65 67 67 69 69 68 68 68 69 69 70 70 71 71 71 72 72 72 72 71 70 71 71 72 72 71
24 30 35 33 31 39 44 47 52 58 57 59 61 61 60 58 60 60 63 64 63 63 66 65 66 66 68 69 69 69 69 69 69 70 70 71 71 72 72 72 72 72 72 72 73 72 71 72 71
27 27 26 27 27 31 41 44 44 55 58 59 60 61 62 64 64 64 63 64 65 65 66 68 67 66 68 68 69 69 70 70 70 70 70 70 71 71 71 71 72 72 72 72 72 73 72 72 71
29 29 28 29 31 33 37 41 53 54 58 59 60 61 62 63 65 66 66 66 66 68 68 69 69 69 69 69 69 70 70 70 71 70 70 71 72 72 72 72 72 72 72 73 72 72 72 71 71
31 29 28 27 31 38 38 42 56 58 59 60 60 61 63 64 65 67 67 66 67 68 69 69 69 69 69 70 70 70 71 71 71 71 71 72 72 72 72 72 72 73 72 73 73 72 72 71 71
Lifted_Index
1 1 0 -0 -1 -1 -1 -1 -0 1 2 2 1 -0 -1 -2 -2 -1 -2 -2 -3 -4 -4 -4 -5 -5 -5 -5 -5 -5 -6 -6 -6 -6 -6 -6 -7 -7 -7 -7 -6 -6 -6 -6 -6 -6 -6 -6 -6
1 1 0 -1 -1 -1 -1 -1 -0 1 2 1 0 -1 -1 -2 -2 -2 -2 -3 -4 -4 -4 -4 -5 -5 -5 -5 -5 -5 -6 -6 -6 -6 -6 -6 -7 -7 -7 -7 -7 -6 -6 -6 -6 -6 -6 -6 -6
1 0 -0 -1 -1 -1 -1 -1 -0 0 1 0 -1 -2 -2 -2 -2 -2 -3 -4 -4 -4 -4 -4 -5 -5 -5 -5 -5 -5 -6 -6 -6 -6 -6 -7 -7 -7 -7 -7 -7 -7 -6 -6 -6 -6 -6 -6 -6
-0 -0 -1 -1 -1 -1 -1 -1 -1 -0 0 -0 -1 -1 -1 -1 -2 -2 -3 -4 -4 -4 -4 -4 -5 -5 -6 -6 -6 -6 -6 -6 -6 -6 -6 -7 -7 -7 -7 -7 -7 -7 -6 -6 -6 -6 -6 -6 -6
-0 -1 -1 -1 -1 -1 -1 -1 -1 -0 -0 -1 -1 -1 -1 -1 -2 -2 -3 -3 -3 -3 -4 -5 -5 -6 -6 -6 -6 -6 -6 -6 -6 -6 -7 -7 -7 -7 -7 -7 -7 -7 -6 -6 -6 -6 -6 -6 -6
-1 -1 -0 -0 -1 -1 -1 -1 -1 -0 -0 -0 -1 -1 -1 -1 -2 -2 -3 -3 -3 -3 -4 -5 -5 -5 -6 -6 -6 -6 -6 -6 -6 -6 -7 -7 -7 -7 -7 -7 -7 -7 -6 -6 -6 -6 -6 -6 -6
-1 -0 -0 -0 -1 -1 -1 -1 -1 -0 -0 0 -0 -1 -1 -1 -1 -1 -2 -3 -3 -4 -4 -5 -5 -5 -5 -6 -6 -6 -6 -6 -6 -6 -7 -7 -7 -6 -7 -7 -7 -7 -6 -6 -6 -5 -6 -6 -6
-1 -1 -0 -0 -1 -1 -1 -1 -1 -0 0 0 0 -0 -1 -1 -1 -1 -2 -3 -3 -4 -4 -5 -5 -5 -5 -6 -6 -6 -6 -5 -6 -6 -6 -6 -6 -6 -6 -6 -7 -7 -6 -6 -5 -5 -5 -6 -5
-1 -1 -0 -0 -1 -1 -1 -1 -1 -0 0 -0 -0 -0 -1 -2 -1 -1 -1 -2 -3 -4 -4 -4 -5 -5 -5 -5 -5 -5 -5 -5 -5 -6 -6 -5 -5 -6 -6 -6 -6 -6 -6 -5 -5 -5 -5 -5 -5
-1 -1 -1 -1 -1 -1 -1 -1 -1 -0 -0 -0 -1 -1 -1 -2 -1 -1 -1 -2 -3 -3 -4 -4 -5 -5 -5 -5 -5 -5 -5 -5 -5 -5 -5 -5 -5 -5 -6 -6 -6 -5 -4 -4 -5 -4 -4 -3 -3
-1 -1 -1 -1 -1 -1 -1 -1 -1 -0 0 -0 -1 -1 -2 -2 -1 -1 -1 -1 -2 -3 -4 -4 -4 -4 -5 -4 -4 -4 -4 -4 -4 -4 -4 -5 -5 -5 -5 -5 -4 -3 -2 -3 -3 -3 -3 -2 -2
-1 -1 -2 -2 -2 -1 -1 -1 -1 -0 0 -0 -1 -1 -2 -2 -2 -1 -1 -1 -2 -3 -3 -4 -4 -4 -4 -4 -3 -3 -3 -3 -3 -4 -4 -4 -4 -4 -4 -3 -3 -2 -1 -2 -2 -2 -2 -2 -2
-1 -1 -2 -2 -2 -2 -1 -1 -0 -0 -0 -0 -1 -1 -1 -2 -2 -1 -1 -1 -1 -2 -3 -3 -3 -3 -3 -3 -3 -3 -3 -3 -3 -3 -4 -3 -3 -3 -2 -2 -2 -1 -1 -1 -2 -2 -2 -2 -2
-1 -2 -2 -3 -3 -2 -1 -1 -0 -0 -0 -1 -1 -1 -1 -1 -2 -1 -1 -1 -1 -1 -2 -3 -3 -3 -3 -3 -3 -3 -3 -3 -3 -3 -3 -3 -2 -2 -1 -1 -1 -1 -1 -1 -2 -2 -2 -2 -1
-2 -2 -2 -3 -2 -2 -1 -1 -1 -0 -1 -1 -1 -1 -1 -1 -1 -1 -1 -1 -1 -1 -2 -3 -3 -3 -2 -2 -2 -2 -2 -2 -2 -3 -3 -2 -2 -2 -1 -1 -1 -1 -1 -2 -2 -2 -2 -1 -1
-2 -2 -2 -2 -2 -2 -1 -1 -1 -1 -1 -1 -1 -1 -1 -1 -1 -1 -1 -1 -1 -1 -2 -2 -3 -3 -2 -2 -2 -2 -2 -2 -2 -2 -2 -2 -2 -2 -1 -1 -1 -1 -2 -2 -2 -2 -2 -2 -2
-1 -2 -2 -2 -2 -2 -1 -1 -1 -1 -1 -1 -1 -1 -1 -1 -1 -1 -1 -1 -1 -1 -2 -2 -3 -3 -3 -2 -2 -2 -2 -2 -2 -2 -2 -2 -2 -2 -2 -2 -2 -2 -2 -2 -2 -2 -2 -2 -2
-1 -1 -2 -2 -2 -2 -2 -1 -1 -1 -1 -1 -1 -1 -1 -1 -1 -1 -1 -1 -1 -1 -2 -2 -2 -3 -3 -2 -2 -2 -2 -2 -3 -3 -2 -2 -2 -3 -2 -2 -2 -2 -2 -2 -2 -2 -2 -2 -2
-0 -1 -2 -2 -2 -2 -1 -1 -1 -1 -0 -1 -1 -1 -1 -1 -1 -1 -1 -2 -2 -2 -2 -2 -2 -2 -2 -2 -2 -2 -2 -2 -3 -3 -3 -3 -3 -2 -2 -2 -2 -2 -2 -2 -2 -3 -2 -2 -2
-0 -1 -1 -2 -2 -1 -1 -1 -1 -0 -0 -0 -1 -1 -1 -1 -1 -1 -1 -1 -2 -2 -2 -2 -2 -2 -2 -2 -2 -2 -2 -2 -2 -3 -3 -3 -2 -2 -2 -2 -2 -2 -2 -2 -3 -3 -2 -2 -2
-0 -1 -1 -2 -2 -1 -1 -1 -1 -1 -0 -0 -0 -0 -1 -1 -1 -1 -1 -1 -2 -2 -2 -2 -2 -2 -2 -2 -2 -2 -2 -2 -2 -3 -3 -3 -2 -2 -2 -2 -2 -2 -2 -2 -3 -3 -3 -3 -3
0 -0 -1 -2 -2 -1 -1 -1 -1 -1 -1 -1 -0 -1 -1 -1 -1 -1 -1 -1 -1 -1 -1 -1 -1 -2 -2 -2 -2 -2 -2 -2 -2 -2 -2 -3 -3 -3 -2 -2 -2 -2 -2 -2 -3 -3 -3 -3 -4
1 0 -1 -2 -2 -1 -1 -0 -0 -1 -1 -1 -1 -1 -1 -1 -1 -1 -1 -1 -1 -1 -1 -1 -1 -1 -2 -2 -2 -2 -2 -2 -2 -2 -2 -3 -3 -3 -3 -3 -2 -2 -2 -2 -3 -3 -3 -3 -4
2 0 -1 -2 -1 -1 -1 -0 -0 -0 -1 -1 -0 -0 -1 -1 -1 -1 -1 -1 -1 -1 -1 -1 -1 -1 -1 -1 -1 -2 -2 -2 -2 -2 -2 -2 -3 -3 -3 -3 -3 -2 -2 -2 -2 -3 -3 -3 -3
3 2 -0 -1 -1 -1 -1 -0 -0 -0 0 0 0 -0 -1 -1 -1 -1 -1 -1 -1 -1 -0 -0 -0 -1 -1 -1 -1 -1 -2 -2 -2 -2 -2 -2 -2 -3 -3 -3 -3 -2 -2 -2 -2 -3 -3 -3 -3
4 3 1 -0 -0 -1 -1 -0 -0 -0 -0 -0 -0 -0 -0 -1 -1 -1 -1 -1 -1 -1 -0 -0 -0 -1 -1 -1 -1 -1 -2 -2 -2 -2 -2 -2 -2 -2 -3 -3 -3 -3 -3 -2 -2 -3 -3 -3 -3
4 3 2 1 0 -1 -1 -1 -1 -1 -1 -1 -1 -1 -1 -1 -1 -1 -1 -1 -1 -1 -1 -1 -1 -1 -1 -1 -2 -2 -2 -2 -2 -2 -2 -2 -2 -2 -3 -3 -3 -3 -3 -3 -3 -3 -3 -3 -3
3 3 2 2 1 -0 -0 -1 -1 -1 -1 -1 -1 -1 -2 -2 -1 -1 -1 -1 -1 -1 -1 -1 -1 -1 -1 -1 -2 -2 -2 -2 -2 -2 -2 -2 -2 -2 -3 -3 -3 -3 -3 -3 -3 -3 -3 -3 -3
3 3 2 2 1 1 0 -0 -1 -2 -2 -2 -2 -2 -2 -2 -2 -2 -1 -1 -1 -1 -1 -2 -1 -1 -1 -1 -2 -1 -2 -2 -2 -2 -2 -2 -2 -2 -3 -3 -3 -3 -3 -3 -3 -3 -3 -3 -3
2 2 2 2 2 1 1 0 -1 -2 -2 -2 -2 -2 -2 -2 -2 -2 -2 -1 -1 -1 -2 -2 -2 -1 -1 -2 -2 -1 -2 -2 -2 -2 -2 -2 -2 -3 -3 -3 -3 -3 -3 -3 -3 -3 -3 -3 -3